Time,TemperatureF,DewpointF,PressureIn,WindDirection,WindDirectionDegrees,WindSpeedMPH,WindSpeedGustMPH,Humidity,HourlyPrecipIn,Conditions,Clouds,dailyrainin,SolarRadiationWatts/m^2,SoftwareType,DateUTC
2013-05-03 00:11:00,55.0,54.0,-100.00,NNW,331,4.0,9.0,97,0.00,,,0.00,178.000000,,2013-05-03 00:11:00,
2013-05-03 00:21:00,55.0,54.0,-100.00,NNW,331,4.0,9.0,97,0.00,,,0.00,178.000000,,2013-05-03 00:21:00,
2013-05-03 00:31:00,55.0,54.0,-100.00,NNW,331,4.0,9.0,97,0.00,,,0.00,178.000000,,2013-05-03 00:31:00,
2013-05-03 00:41:00,55.0,54.0,-100.00,NNW,331,4.0,9.0,97,0.00,,,0.00,178.000000,,2013-05-03 00:41:00,
2013-05-03 01:11:00,54.0,53.0,-100.00,WNW,293,5.0,8.0,96,0.00,,,0.00,115.000000,,2013-05-03 01:11:00,
2013-05-03 01:21:00,54.0,53.0,-100.00,WNW,293,5.0,8.0,96,0.00,,,0.00,115.000000,,2013-05-03 01:21:00,
2013-05-03 01:31:00,54.0,53.0,-100.00,WNW,293,5.0,8.0,96,0.00,,,0.00,115.000000,,2013-05-03 01:31:00,
2013-05-03 01:41:00,54.0,53.0,-100.00,WNW,293,5.0,8.0,96,0.00,,,0.00,115.000000,,2013-05-03 01:41:00,
2013-05-03 02:11:00,55.0,52.0,-100.00,West,265,3.0,10.0,90,0.00,,,0.00,148.000000,,2013-05-03 02:11:00,
2013-05-03 02:21:00,55.0,52.0,-100.00,West,265,3.0,10.0,90,0.00,,,0.00,148.000000,,2013-05-03 02:21:00,
2013-05-03 02:31:00,55.0,52.0,-100.00,West,265,3.0,10.0,90,0.00,,,0.00,148.000000,,2013-05-03 02:31:00,
2013-05-03 02:41:00,55.0,52.0,-100.00,West,265,3.0,10.0,90,0.00,,,0.00,148.000000,,2013-05-03 02:41:00,
2013-05-03 03:11:00,54.0,53.0,-100.00,NW,322,4.0,9.0,96,0.00,,,0.00,161.000000,,2013-05-03 03:11:00,
2013-05-03 03:21:00,54.0,53.0,-100.00,NW,322,4.0,9.0,96,0.00,,,0.00,161.000000,,2013-05-03 03:21:00,
2013-05-03 03:33:00,54.0,53.0,-100.00,NW,322,4.0,9.0,96,0.00,,,0.00,161.000000,,2013-05-03 03:33:00,
2013-05-03 03:42:00,54.0,53.0,-100.00,NW,322,4.0,9.0,96,0.00,,,0.00,161.000000,,2013-05-03 03:42:00,
2013-05-03 04:12:00,54.0,52.0,-100.00,WNW,282,4.0,7.0,94,0.00,,,0.00,101.000000,,2013-05-03 04:12:00,
2013-05-03 04:22:00,54.0,52.0,-100.00,WNW,282,4.0,7.0,94,0.00,,,0.00,101.000000,,2013-05-03 04:22:00,
2013-05-03 04:32:00,54.0,52.0,-100.00,WNW,282,4.0,7.0,94,0.00,,,0.00,101.000000,,2013-05-03 04:32:00,
2013-05-03 04:42:00,54.0,52.0,-100.00,WNW,282,4.0,7.0,94,0.00,,,0.00,101.000000,,2013-05-03 04:42:00,
2013-05-03 05:12:00,52.0,49.0,-100.00,North,354,0.0,9.0,91,0.00,,,0.00,20.000000,,2013-05-03 05:12:00,
2013-05-03 05:21:00,52.0,49.0,-100.00,North,354,0.0,9.0,91,0.00,,,0.00,20.000000,,2013-05-03 05:21:00,
2013-05-03 05:32:00,52.0,49.0,-100.00,North,354,0.0,9.0,91,0.00,,,0.00,20.000000,,2013-05-03 05:32:00,
2013-05-03 05:42:00,52.0,49.0,-100.00,North,354,0.0,9.0,91,0.00,,,0.00,20.000000,,2013-05-03 05:42:00,
2013-05-03 06:11:00,51.0,35.0,-100.00,ENE,72,6.0,11.0,55,0.00,,,0.00,1.000000,,2013-05-03 06:11:00,
2013-05-03 06:21:00,51.0,35.0,-100.00,ENE,72,6.0,11.0,55,0.00,,,0.00,1.000000,,2013-05-03 06:21:00,
2013-05-03 06:32:00,51.0,35.0,-100.00,ENE,72,6.0,11.0,55,0.00,,,0.00,1.000000,,2013-05-03 06:32:00,
2013-05-03 06:42:00,51.0,35.0,-100.00,ENE,72,6.0,11.0,55,0.00,,,0.00,1.000000,,2013-05-03 06:42:00,
2013-05-03 07:11:00,49.0,33.0,-100.00,East,90,3.0,8.0,53,0.00,,,-99.99,0.000000,,2013-05-03 07:11:00,
2013-05-03 07:21:00,49.0,33.0,-100.00,East,90,3.0,8.0,53,0.00,,,-99.99,0.000000,,2013-05-03 07:21:00,
2013-05-03 07:31:00,49.0,33.0,-100.00,East,90,3.0,8.0,53,0.00,,,-99.99,0.000000,,2013-05-03 07:31:00,
2013-05-03 07:42:00,49.0,33.0,-100.00,East,90,3.0,8.0,53,0.00,,,-99.99,0.000000,,2013-05-03 07:42:00,
2013-05-03 08:11:00,49.0,37.0,-100.00,East,89,3.0,6.0,63,0.00,,,0.00,0.000000,,2013-05-03 08:11:00,
2013-05-03 08:21:00,49.0,37.0,-100.00,East,89,3.0,6.0,63,0.00,,,0.00,0.000000,,2013-05-03 08:21:00,
2013-05-03 08:31:00,49.0,37.0,-100.00,East,89,3.0,6.0,63,0.00,,,0.00,0.000000,,2013-05-03 08:31:00,
2013-05-03 08:42:00,49.0,37.0,-100.00,East,89,3.0,6.0,63,0.00,,,0.00,0.000000,,2013-05-03 08:42:00,
2013-05-03 09:11:00,49.0,28.0,-100.00,East,100,3.0,7.0,44,0.00,,,0.00,0.000000,,2013-05-03 09:11:00,
2013-05-03 09:21:00,49.0,28.0,-100.00,East,100,3.0,7.0,44,0.00,,,0.00,0.000000,,2013-05-03 09:21:00,
2013-05-03 09:32:00,49.0,28.0,-100.00,East,100,3.0,7.0,44,0.00,,,0.00,0.000000,,2013-05-03 09:32:00,
2013-05-03 09:42:00,49.0,28.0,-100.00,East,100,3.0,7.0,44,0.00,,,0.00,0.000000,,2013-05-03 09:42:00,
2013-05-03 10:12:00,47.0,32.0,-100.00,ENE,66,1.0,6.0,55,0.00,,,0.00,0.000000,,2013-05-03 10:12:00,
2013-05-03 10:22:00,47.0,32.0,-100.00,ENE,66,1.0,6.0,55,0.00,,,0.00,0.000000,,2013-05-03 10:22:00,
2013-05-03 10:32:00,47.0,32.0,-100.00,ENE,66,1.0,6.0,55,0.00,,,0.00,0.000000,,2013-05-03 10:32:00,
2013-05-03 10:42:00,47.0,32.0,-100.00,ENE,66,1.0,6.0,55,0.00,,,0.00,0.000000,,2013-05-03 10:42:00,
2013-05-03 12:11:00,47.0,28.0,-100.00,East,96,0.0,0.0,47,-99.99,,,-99.99,0.000000,,2013-05-03 12:11:00,
2013-05-03 12:21:00,47.0,28.0,-100.00,East,96,0.0,0.0,47,-99.99,,,-99.99,0.000000,,2013-05-03 12:21:00,
2013-05-03 12:32:00,47.0,28.0,-100.00,East,96,0.0,0.0,47,-99.99,,,-99.99,0.000000,,2013-05-03 12:32:00,
2013-05-03 12:41:00,47.0,28.0,-100.00,East,96,0.0,0.0,47,-99.99,,,-99.99,0.000000,,2013-05-03 12:41:00,
2013-05-03 13:11:00,48.0,24.0,-100.00,East,83,0.0,0.0,38,0.00,,,0.00,0.000000,,2013-05-03 13:11:00,
2013-05-03 13:22:00,48.0,24.0,-100.00,East,83,0.0,0.0,38,0.00,,,0.00,0.000000,,2013-05-03 13:22:00,
2013-05-03 13:32:00,48.0,24.0,-100.00,East,83,0.0,0.0,38,0.00,,,0.00,0.000000,,2013-05-03 13:32:00,
2013-05-03 13:42:00,48.0,24.0,-100.00,East,83,0.0,0.0,38,0.00,,,0.00,0.000000,,2013-05-03 13:42:00,
2013-05-03 14:11:00,49.0,25.0,-100.00,East,94,0.0,0.0,39,0.00,,,0.00,0.000000,,2013-05-03 14:11:00,
2013-05-03 14:21:00,49.0,25.0,-100.00,East,94,0.0,0.0,39,0.00,,,0.00,0.000000,,2013-05-03 14:21:00,
2013-05-03 14:32:00,49.0,25.0,-100.00,East,94,0.0,0.0,39,0.00,,,0.00,0.000000,,2013-05-03 14:32:00,
2013-05-03 14:42:00,49.0,25.0,-100.00,East,94,0.0,0.0,39,0.00,,,0.00,0.000000,,2013-05-03 14:42:00,
2013-05-03 15:11:00,47.0,25.0,-100.00,East,88,0.0,0.0,42,0.00,,,0.00,0.000000,,2013-05-03 15:11:00,
2013-05-03 15:22:00,47.0,25.0,-100.00,East,88,0.0,0.0,42,0.00,,,0.00,0.000000,,2013-05-03 15:22:00,
2013-05-03 15:32:00,47.0,25.0,-100.00,East,88,0.0,0.0,42,0.00,,,0.00,0.000000,,2013-05-03 15:32:00,
2013-05-03 15:43:00,47.0,25.0,-100.00,East,88,0.0,0.0,42,0.00,,,0.00,0.000000,,2013-05-03 15:43:00,
2013-05-03 16:12:00,46.0,27.0,-100.00,East,98,0.0,0.0,48,0.00,,,0.00,0.000000,,2013-05-03 16:12:00,
2013-05-03 16:22:00,46.0,27.0,-100.00,East,98,0.0,0.0,48,0.00,,,0.00,0.000000,,2013-05-03 16:22:00,
2013-05-03 16:32:00,46.0,27.0,-100.00,East,98,0.0,0.0,48,0.00,,,0.00,0.000000,,2013-05-03 16:32:00,
2013-05-03 16:42:00,46.0,27.0,-100.00,East,98,0.0,0.0,48,0.00,,,0.00,0.000000,,2013-05-03 16:42:00,
2013-05-03 17:12:00,47.0,32.0,-100.00,ENE,78,0.0,0.0,55,0.00,,,0.00,12.000000,,2013-05-03 17:12:00,
2013-05-03 17:22:00,47.0,32.0,-100.00,ENE,78,0.0,0.0,55,0.00,,,0.00,12.000000,,2013-05-03 17:22:00,
2013-05-03 17:32:00,47.0,32.0,-100.00,ENE,78,0.0,0.0,55,0.00,,,0.00,12.000000,,2013-05-03 17:32:00,
2013-05-03 17:42:00,47.0,32.0,-100.00,ENE,78,0.0,0.0,55,0.00,,,0.00,12.000000,,2013-05-03 17:42:00,
2013-05-03 18:12:00,50.0,36.0,-100.00,SE,129,0.0,2.0,59,0.00,,,0.00,113.000000,,2013-05-03 18:12:00,
2013-05-03 18:21:00,50.0,36.0,-100.00,SE,129,0.0,2.0,59,0.00,,,0.00,113.000000,,2013-05-03 18:21:00,
2013-05-03 18:31:00,50.0,36.0,-100.00,SE,129,0.0,2.0,59,0.00,,,0.00,113.000000,,2013-05-03 18:31:00,
2013-05-03 18:42:00,50.0,36.0,-100.00,SE,129,0.0,2.0,59,0.00,,,0.00,113.000000,,2013-05-03 18:42:00,
2013-05-03 19:11:00,55.0,49.0,-100.00,NW,305,3.0,6.0,81,0.00,,,0.00,522.000000,,2013-05-03 19:11:00,
2013-05-03 19:21:00,55.0,49.0,-100.00,NW,305,3.0,6.0,81,0.00,,,0.00,522.000000,,2013-05-03 19:21:00,
2013-05-03 19:32:00,55.0,49.0,-100.00,NW,305,3.0,6.0,81,0.00,,,0.00,522.000000,,2013-05-03 19:32:00,
2013-05-03 19:41:00,55.0,49.0,-100.00,NW,305,3.0,6.0,81,0.00,,,0.00,522.000000,,2013-05-03 19:41:00,
2013-05-03 20:11:00,57.0,52.0,-100.00,NNW,348,3.0,8.0,82,0.00,,,0.00,614.000000,,2013-05-03 20:11:00,
2013-05-03 20:21:00,57.0,52.0,-100.00,NNW,348,3.0,8.0,82,0.00,,,0.00,614.000000,,2013-05-03 20:21:00,
2013-05-03 20:31:00,57.0,52.0,-100.00,NNW,348,3.0,8.0,82,0.00,,,0.00,614.000000,,2013-05-03 20:31:00,
2013-05-03 20:41:00,57.0,52.0,-100.00,NNW,348,3.0,8.0,82,0.00,,,0.00,614.000000,,2013-05-03 20:41:00,
2013-05-03 21:11:00,55.0,52.0,-100.00,NW,321,6.0,10.0,89,0.00,,,0.00,515.000000,,2013-05-03 21:11:00,
2013-05-03 21:21:00,55.0,52.0,-100.00,NW,321,6.0,10.0,89,0.00,,,0.00,515.000000,,2013-05-03 21:21:00,
2013-05-03 21:33:00,55.0,52.0,-100.00,NW,321,6.0,10.0,89,0.00,,,0.00,515.000000,,2013-05-03 21:33:00,
2013-05-03 21:42:00,55.0,52.0,-100.00,NW,321,6.0,10.0,89,0.00,,,0.00,515.000000,,2013-05-03 21:42:00,
2013-05-03 22:12:00,57.0,52.0,-100.00,WNW,303,6.0,9.0,82,0.00,,,0.00,348.000000,,2013-05-03 22:12:00,
2013-05-03 22:22:00,57.0,52.0,-100.00,WNW,303,6.0,9.0,82,0.00,,,0.00,348.000000,,2013-05-03 22:22:00,
2013-05-03 22:32:00,57.0,52.0,-100.00,WNW,303,6.0,9.0,82,0.00,,,0.00,348.000000,,2013-05-03 22:32:00,
2013-05-03 22:42:00,57.0,52.0,-100.00,WNW,303,6.0,9.0,82,0.00,,,0.00,348.000000,,2013-05-03 22:42:00,